Regional Weather Roundup
Issued by NWS

Home | Current Version | Previous Version | Graphics & Text | Print | Product List | Glossary On
Versions: 1 2 3 4 5 6 7 8 9 10 11 12 13 14 15 16 17 18 19 20 21 22 23 24 25 26 27 28 29 30 31 32 33 34 35 36 37 38 39 40 41 42 43 44 45 46 47 48 49 50
000
ASUS45 KBOU 212207
RWRCO

WEATHER ROUNDUP FOR COLORADO
NATIONAL WEATHER SERVICE DENVER/BOULDER CO
400 PM MDT THU AUG 21 2014

NOTE: "FAIR" INDICATES FEW OR NO CLOUDS BELOW 12000 FEET WITH NO
SIGNIFICANT WEATHER AND/OR OBSTRUCTIONS TO VISIBILITY.

COZ001>005-013-030-031-212300-
...NORTHWEST COLORADO...

CITY           SKY/WX    TMP DP  RH WIND       PRES   REMARKS
CRAIG          CLOUDY    74  47  38 S10       30.18S
HAYDEN         CLOUDY    72  41  33 W13G20    30.21S
MEEKER         CLOUDY    73  46  38 W8        30.20F
MOUNT WERNER   NOT AVBL
STEAMBOAT SPGS CLOUDY    71  43  36 S7        30.23S
WALDEN         CLOUDY    61  41  48 SE12      30.32S
$$

COZ006>008-011-212300-
...WEST CENTRAL VALLEYS...

CITY           SKY/WX    TMP DP  RH WIND       PRES   REMARKS
GRAND JUNCTION CLOUDY    78  45  30 E5        30.10F
MONTROSE       PTSUNNY   81  41  24 NW12      30.15F
EAGLE          PTSUNNY   73  43  33 W7        30.23F
RIFLE          CLOUDY    79  37  22 W16       30.14F
DELTA          PTSUNNY   84  40  21 CALM      30.11F
NUCLA          PTSUNNY   79  34  19 W12G20    30.20F
$$

COZ017>023-064>068-212300-
...SOUTHWEST COLORADO...

CITY           SKY/WX    TMP DP  RH WIND       PRES   REMARKS
DURANGO        PTSUNNY   79  35  20 W9        30.20F
CORTEZ         SUNNY     79  35  20 W12       30.18F
PAGOSA SPRINGS PTSUNNY   78  20  11 W6G17     30.28S
TELLURIDE      LGT RAIN  61  36  39 NW5       30.39R
WOLF CREEK PAS NOT AVBL
$$

COZ009-010-012-014-032>034-037-058>063-212300-
...CENTRAL COLORADO...

CITY           SKY/WX    TMP DP  RH WIND       PRES   REMARKS
ASPEN          PTSUNNY   71  38  29 NW16      30.29F
BUENA VISTA    PTSUNNY   74  31  20 CALM      30.26S
COPPER MTN     CLOUDY    54  36  50 W10       30.59R
BERTHOUD PASS  PTSUNNY   48  46  93 SW9G16    30.63S
COTTONWOOD PAS CLOUDY    70  27  19 W3        30.41S
GUNNISON       PTSUNNY   73  36  25 N12       30.28S
KREMMLING      PTSUNNY   75  36  23 N7G16     30.26S
LEADVILLE      CLOUDY    63  33  32 VRB7      30.41S
SALIDA         PTSUNNY   79  26  14 SW3       30.30S
SUNLIGHT       PTSUNNY   59  43  55 CALM      30.53S
WILKERSON PASS NOT AVBL
$$

COZ069>075-212300-
...SAN LUIS VALLEY/SANGRE DE CRISTO MOUNTAINS...

CITY           SKY/WX    TMP DP  RH WIND       PRES   REMARKS
ALAMOSA        MOSUNNY   77  32  19 VRB5      30.23F
LA VETA PASS   NOT AVBL
SAGUACHE       CLOUDY    73  36  25 SW5       30.28S
$$

COZ035-036-038>040-212300-
...NORTHERN COLORADO FRONT RANGE...

CITY           SKY/WX    TMP DP  RH WIND       PRES   REMARKS
DENVER INTL AP PTSUNNY   83  42  23 E5        30.08F
DMNS CITY PARK   N/A     87  41  20 E5        30.07S
AURORA         PTSUNNY   83  42  23 E5        30.11S
FRONT RANGE AP NOT AVBL
ERIE MUNI ARPT PTSUNNY   85  39  19 E5        30.06F
BOULDER MUN AP PTSUNNY   82  46  28 E6        30.07S
CENTENNIAL     PTSUNNY   81  38  21 N5        30.11F
BROOMFIELD     PTSUNNY   82  41  23 NE8       30.11S
FORT COLLINS   PTSUNNY   88  48  25 N12       30.05S
LONGMONT       PTSUNNY   89  45  21 SE8       30.07F
$$

COZ041-046-047-076>085-087-088-212300-
...PIKES PEAK/PALMER DIVIDE AND SOUTHERN FOOTHILLS...

CITY           SKY/WX    TMP DP  RH WIND       PRES   REMARKS
COLO. SPRINGS  MOSUNNY   81  39  22 CALM      30.14F
A. F. ACADEMY  MOSUNNY   80  43  27 SE6       30.15F
ELLICOTT       MOSUNNY   83  40  21 SW6       30.13F
FALCON         MOSUNNY   81  42  25 SE7       30.21S
FORT CARSON    NOT AVBL
LIMON          PTSUNNY   81  47  30 NE9       30.09S
MONUMENT HILL  MOSUNNY   73  43  33 CALM      30.20S
TRINIDAD       PTSUNNY   87  45  23 N6        30.09F
$$

COZ042>045-048>051-090-091-212300-
...NORTHEAST COLORADO...

CITY           SKY/WX    TMP DP  RH WIND       PRES   REMARKS
GREELEY ARPT   MOSUNNY   88  45  22 NW6       30.05S
AKRON          SUNNY     85  44  23 NW9G20    30.05F
BURLINGTON     SUNNY     90  46  21 VRB5      30.01F
WRAY             N/A     94  46  19 N8        29.98S
STERLING       SUNNY     90  52  27 CALM      30.00S
HOLYOKE        NOT AVBL
FORT MORGAN    PTSUNNY   88  43  21 SE8       30.04F
$$

COZ086-089-092>099-212300-
...SOUTHEAST COLORADO...

CITY           SKY/WX    TMP DP  RH WIND       PRES   REMARKS
PUEBLO         SUNNY     92  38  15 E9        30.01F
LA JUNTA       NOT AVBL
LAMAR          NOT AVBL
SPRINGFIELD    NOT AVBL
$$


USA.gov is the U.S. government's official web portal to all federal, state and local government web resources and services.